User: anonymous   Login
Location: Columbia
(38.9520°N, 92.3340°W)
Time: 23:47:57
(UTC-05:00)
Language:

Iridium 52 - Orbit

View from above orbital plane
View from above orbital plane
View from above satellite
View from above satellite

Ground track
Ground track

The orbit data is extracted from the following two-line orbital elements,

1 25169U 98010A   18116.32313776  .00000151  00000-0  46990-4 0  9999
2 25169  86.4010 219.4727 0002195  98.1554 261.9890 14.34219803 56668
Epoch (UTC): 26 April 2018 07:45:19
Eccentricity: 0.0002195
inclination: 86.4010°
perigee height: 776 km
apogee height: 779 km
right ascension of ascending node: 219.4727°
argument of perigee: 98.1554°
revolutions per day: 14.34219803
mean anomaly at epoch: 261.9890°
orbit number at epoch: 5666

The dashed part of the orbit path shows where the satellite is in the earth's shadow,  

DLR